Tracking 29511 objects as of 17-Sep-2024
HD Live streaming from Space Station
objects crossing your sky now

FENGYUN 1C DEB

Track FENGYUN 1C DEB now!
10-day predictions


NORAD ID: 31937
Int'l Code: 1999-025CMN
Perigee: 540.4 km
Apogee: 804.5 km
Inclination: 99.3 °
Period: 98.0 minutes
Semi major axis: 7043 km
RCS: 0.0094 m2 (small)
Launch date: May 10, 1999
Source: People's Republic of China (PRC)
Launch site: Taiyaun Space Center, China (TSC)

Note: This is SATELLITE DEBRIS
Your satellite tracking list
Your tracking list is empty




NASA's NSSDC Master Catalog

Two Line Element Set (TLE):
1 31937U 99025CMN 24259.81231181  .00012381  00000-0  16337-2 0  9992
2 31937  99.3009 278.3696 0187498 257.1536 100.8660 14.68676532593974
Source of the keplerian elements: AFSPC